Regional Weather Roundup
Issued by NWS

Home | Current Version | Previous Version | Graphics & Text | Print | Product List | Glossary On
Versions: 1 2 3 4 5 6 7 8 9 10 11 12 13 14 15 16 17 18 19 20 21 22 23 24 25 26 27 28 29 30 31 32 33 34 35 36 37 38 39 40 41 42 43 44 45 46 47 48 49 50
000
ASUS44 KMEG 261110
RWRTN
TENNESSEE HOURLY STATE WEATHER ROUNDUP
NATIONAL WEATHER SERVICE MEMPHIS TN
600 AM CDT MON SEP 26 2016

TNZ002-004-019-021-049-052-054-088>092-261200-
WEST TENNESSEE

CITY           SKY/WX    TMP DP  RH WIND       PRES   REMARKS
MEMPHIS INTL   CLOUDY    75  70  84 N15G24    30.05R
NWS MEMPHIS      N/A     74 N/A N/A MISG        N/A
JACKSON          N/A    N/A N/A N/A MISG      30.04R
DYERSBURG      MOCLDY   N/A N/A N/A MISG        N/A
UNION CITY     MOCLDY    64  59  82 N15       30.08R
PARIS          CLOUDY    66  61  82 N14       30.07R
HUNTINGDON       N/A     73  70  88 NW8       30.04R
LEXINGTON      MOCLDY    70  66  88 NW7       30.02R
$$

TNZ008-025-027-028-033-062-065-066-261200-
NORTH MIDDLE TENNESSEE

CITY           SKY/WX    TMP DP  RH WIND       PRES   REMARKS
NASHVILLE      PTCLDY    67  64  90 CALM      30.00R
PORTLAND       CLEAR     66  64  94 CALM      29.99F
CLARKSVILLE    CLOUDY    72  66  81 NW13      30.02R
SMYRNA         CLEAR     65  64  97 CALM      30.01R
COOKEVILLE     CLEAR     64  64 100 CALM      30.01S
GALLATIN       CLEAR     64  64 100 CALM      30.02R
CROSSVILLE     CLEAR     69  60  73 VRB3      30.07S
$$

TNZ061-075-076-078-094-096-097-261200-
SOUTH MIDDLE TENNESSEE

CITY           SKY/WX    TMP DP  RH WIND       PRES   REMARKS
FAYETTEVILLE   MOCLDY    73  64  73 S7        30.02R
TULLAHOMA      CLEAR     64  63  94 CALM      30.04R
WINCHESTER     CLEAR     70  63  78 NE3       30.03R
MCMINNVILLE    CLEAR     64  64 100 N3        30.02R
COLUMBIA       CLEAR    N/A N/A N/A CALM      29.99R
SHELBYVILLE    CLEAR     66  66 100 CALM      30.02R
$$

TNZ017-018-042-046-047-261200-
NORTHEAST TENNESSEE

CITY           SKY/WX    TMP DP  RH WIND       PRES   REMARKS
TRI CITIES     PTCLDY    62  61  96 CALM      30.08R FOG
ELIZABETHTON     N/A     66  64  94 CALM      30.09R
$$

TNZ012-013-036-069-073-074-261200-
CENTRAL EAST TENNESSEE

CITY           SKY/WX    TMP DP  RH WIND       PRES   REMARKS
KNOXVILLE      PTCLDY    73  63  70 W5        30.04
OAK RIDGE      CLEAR     71  64  78 CALM      30.06R
DOWNTOWN KNOXV CLEAR     66  66 100 CALM      30.04R
GATLINBURG     CLEAR     63  61  94 CALM      30.04S
MORRISTOWN     PTCLDY    66  63  88 CALM      30.05R
JACKSBORO      MOCLDY    66  64  94 CALM      30.07S
$$

TNZ083-085-099-261200-
SOUTHEAST TENNESSEE

CITY           SKY/WX    TMP DP  RH WIND       PRES   REMARKS
CHATTANOOGA    PTCLDY    71  63  75 S3        30.04S
$$

SKY/WX REPORTED AS FAIR MEANS FEW OR NO CLOUDS BELOW
12 THOUSAND FEET.




USA.gov is the U.S. government's official web portal to all federal, state and local government web resources and services.